C/2021 A6 ( PanSTARRS )

Japanese version
Home page
Updated on February 20, 2021

---------------------------------------------------------------------

* Profile

Discovery Date January 8, 2021
Magnitude 20.8 mag
Discoverer Pan-STARRS 1 telescope (Haleakala)

* Pictures

* Orbital Elements

Epoch 2021 Apr. 16.0 TT = JDT 2459320.5
T 2021 Apr. 27.85142 TT                                 Rudenko
q   7.9319810            (2000.0)            P               Q
z  +0.0002301      Peri.  351.29650     -0.94027122     -0.21301672
 +/-0.0001323      Node   164.08668     +0.34020623     -0.55994041
e   0.9981745      Incl.   75.57967     -0.01223742     +0.80068134
From 47 observations 2020 Nov. 26-2021 Jan. 13, mean residual 0".4.

* Magnitudes Graph

        m1 = 6.5 + 5 log d + 10.0 log r

---------------------------------------------------------------------

The orbital elements are published on M.P.E.C. 2021-B143.
The magnitudes graphs are made with Comet for Windows.

---------------------------------------------------------------------

Copyright(C) Seiichi Yoshida (comet@aerith.net). All rights reserved.